This is the latest recevied weather packets stored in our database for station/object N4AN. If no packets are shown the sender has not sent any weather packets the latest 1 day(s).
| Time | Temp. | Humidity | Pressure | Rain* | Wind** | Luminosity | Snow |
|---|---|---|---|---|---|---|---|
| 1778024417 | 25.56° C | 82% | 1009 hPa | 0 mm | 3.58 m/s, 226° | - | - |
| 1778024117 | 25.56° C | 82% | 1009 hPa | 0 mm | 2.24 m/s, 238° | - | - |
| 1778023816 | 25.56° C | 82% | 1009 hPa | 0 mm | 1.79 m/s, 199° | - | - |
| 1778023516 | 25.56° C | 82% | 1008.8 hPa | 0 mm | 1.34 m/s, 1° | - | - |
| 1778023216 | 26.11° C | 81% | 1008.8 hPa | 0 mm | 1.79 m/s, 264° | - | - |
| 1778022916 | 26.11° C | 82% | 1008.7 hPa | 0 mm | 0.89 m/s, 257° | - | - |
| 1778022611 | 26.11° C | 82% | 1008.7 hPa | 0 mm | 3.13 m/s, 354° | - | - |
| 1778022309 | 26.11° C | 82% | 1008.8 hPa | 0 mm | 3.13 m/s, 234° | - | - |
| 1778022012 | 26.11° C | 81% | 1008.6 hPa | 0 mm | 1.34 m/s, 243° | - | - |
| 1778021109 | 26.11° C | 82% | 1008.7 hPa | 0 mm | 2.24 m/s, 175° | - | - |
| 1778020804 | 26.11° C | 82% | 1008.7 hPa | 0 mm | 2.68 m/s, 230° | - | - |
| 1778020501 | 26.11° C | 81% | 1008.8 hPa | 0 mm | 0.89 m/s, 178° | - | - |
| 1778020198 | 26.11° C | 81% | 1008.7 hPa | 0 mm | 1.34 m/s, 82° | - | - |
| 1778019895 | 26.11° C | 81% | 1008.6 hPa | 0 mm | 2.24 m/s, 160° | - | - |
| 1778019595 | 26.11° C | 81% | 1008.6 hPa | 0 mm | 2.68 m/s, 286° | - | - |
| 1778019294 | 26.11° C | 81% | 1008.6 hPa | 0 mm | 2.24 m/s, 222° | - | - |
| 1778018994 | 26.11° C | 81% | 1008.7 hPa | 0 mm | 0.89 m/s, 252° | - | - |
| 1778018688 | 26.67° C | 81% | 1008.6 hPa | 0 mm | 2.24 m/s, 98° | - | - |
| 1778018388 | 26.67° C | 81% | 1008.5 hPa | 0 mm | 1.34 m/s, 194° | - | - |
| 1778018087 | 26.67° C | 81% | 1008.4 hPa | 0 mm | 1.79 m/s, 174° | - | - |
| 1778017787 | 26.67° C | 81% | 1008.3 hPa | 0 mm | 5.36 m/s, 226° | - | - |
| 1778017486 | 26.67° C | 81% | 1008.1 hPa | 0 mm | 1.79 m/s, 233° | - | - |
| 1778017185 | 26.67° C | 81% | 1008.2 hPa | 0 mm | 3.13 m/s, 207° | - | - |
| 1778016885 | 26.67° C | 81% | 1008.2 hPa | 0 mm | 1.34 m/s, 245° | - | - |
| 1778016585 | 26.67° C | 81% | 1008 hPa | 0 mm | 2.68 m/s, 156° | - | - |
* Rain latest hour (hover to see other rain measurements)
** Current wind speed in m/s (hover to see current wind gust speed)